KE7JVX-3 Weather Reports


time (UTC)temp
C
wind
direction
speed
KPH
gust
KPH
rain 1hr
cm
rain 24hr
cm
rain mn
cm
humidity
%
barometer
mb
20260506150431 3 0 0.0 8.0 0.00 0.10 0.00 43 1010.5
20260506145428 3 0 0.0 9.7 0.00 0.20 0.00 40 1010.6
20260506144428 2 58 1.6 11.3 0.00 0.28 0.00 49 1010.4
20260506143428 2 313 1.6 6.4 0.00 0.38 0.00 46 1010.4
20260506142428 1 0 0.0 14.5 0.00 0.56 0.00 54 1010.3
20260506141428 1 308 3.2 9.7 0.00 0.61 0.00 53 1010.2
20260506140428 1 322 4.8 12.9 0.00 0.74 0.00 53 1010.2
20260506135428 1 349 4.8 16.1 0.00 0.76 0.00 54 1010.1
20260506134428 1 354 6.4 16.1 0.00 0.81 0.00 54 1010.0
20260506133428 1 317 8.0 16.1 0.00 0.81 0.00 54 1009.9
20260506132428 1 319 8.0 14.5 0.00 0.81 0.00 54 1009.8
20260506131428 0 338 6.4 14.5 0.00 0.84 0.00 56 1009.8
20260506130428 0 326 9.7 17.7 0.00 0.86 0.00 56 1009.7
20260506125428 0 315 9.7 19.3 0.00 0.94 0.00 56 1009.6
20260506124428 0 311 14.5 22.5 0.00 0.97 0.00 56 1009.5
20260506123428 0 309 14.5 20.9 0.00 0.99 0.00 57 1009.5
20260506122428 0 306 16.1 25.7 0.00 1.02 0.00 56 1009.3
20260506121428 0 314 16.1 22.5 0.00 1.02 0.00 57 1009.3
20260506120428 0 309 14.5 24.1 0.00 1.04 0.00 58 1009.2
20260506115428 0 302 16.1 25.7 0.00 1.04 0.00 57 1009.2
20260506114758 0 309 14.5 22.5 0.00 1.04 0.00 58 1009.4
20260506114428 0 309 14.5 22.5 0.00 1.04 0.00 58 1009.4
20260506113639 0 304 14.5 24.1 0.00 1.04 0.00 57 1009.2
20260506113428 0 304 14.5 24.1 0.00 1.04 0.00 57 1009.2
20260506112428 0 300 14.5 27.4 0.00 1.04 0.00 58 1009.2
20260506111546 0 300 17.7 25.7 0.00 1.04 0.00 57 1009.2
20260506111428 0 300 17.7 25.7 0.00 1.04 0.00 57 1009.2
20260506110539 0 300 17.7 25.7 0.00 1.04 0.00 57 1009.1
20260506110428 0 300 17.7 25.7 0.00 1.04 0.00 57 1009.1
20260506105433 0 294 16.1 25.7 0.00 1.04 0.00 58 1009.1
20260506104429 0 302 17.7 25.7 0.00 1.07 0.00 57 1009.1
20260506103429 0 296 16.1 25.7 0.00 1.07 0.00 57 1009.0
20260506102428 0 302 17.7 29.0 0.00 1.07 0.00 57 1008.9
20260506101430 0 298 19.3 29.0 0.00 1.09 0.00 57 1008.9
20260506100428 0 293 17.7 33.8 0.00 1.09 0.00 57 1008.8
20260506095630 0 287 24.1 40.2 0.00 1.09 0.00 57 1008.7
20260506095428 0 287 24.1 40.2 0.00 1.09 0.00 57 1008.7
20260506094428 0 291 20.9 40.2 0.00 1.09 0.00 57 1008.7
20260506093430 0 279 20.9 37.0 0.00 1.09 0.00 58 1008.6
20260506092610 0 286 25.7 37.0 0.00 1.12 0.00 59 1008.6
20260506092428 0 286 25.7 37.0 0.00 1.12 0.00 59 1008.6
20260506091804 0 284 22.5 37.0 0.00 1.12 0.00 59 1008.7
20260506091428 0 284 22.5 37.0 0.00 1.12 0.00 59 1008.7
20260506090720 0 287 22.5 35.4 0.00 1.14 0.00 59 1008.7
20260506090428 0 287 22.5 35.4 0.00 1.14 0.00 59 1008.7
20260506085428 0 290 19.3 37.0 0.00 1.14 0.00 60 1008.6
20260506084709 0 287 14.5 27.4 0.00 1.14 0.00 60 1008.7
20260506084428 0 287 14.5 27.4 0.00 1.14 0.00 60 1008.7
20260506083428 0 297 17.7 32.2 0.00 1.14 0.00 59 1008.8
20260506082428 0 290 17.7 27.4 0.00 1.17 0.00 58 1008.8
20260506082031 0 291 17.7 32.2 0.00 1.17 0.00 56 1008.9
20260506081428 0 291 17.7 32.2 0.00 1.17 0.00 56 1008.9
20260506080428 0 287 14.5 25.7 0.00 1.17 1.17 56 1008.9
20260506073428 0 292 20.9 32.2 0.00 1.22 1.17 53 1009.0
20260506072428 1 293 20.9 30.6 0.00 1.22 1.17 51 1009.1
20260506071430 1 290 17.7 32.2 0.00 1.22 1.17 52 1009.0
20260506070428 1 299 16.1 24.1 0.00 1.22 1.17 52 1009.0
20260506062428 1 302 12.9 24.1 0.00 1.22 1.17 56 1009.1
20260506061734 1 310 11.3 20.9 0.00 1.22 1.17 56 1009.2
20260506061428 1 310 11.3 20.9 0.00 1.22 1.17 56 1009.2
20260506060623 1 298 14.5 20.9 0.00 1.22 1.17 56 1009.0
20260506060429 1 298 14.5 20.9 0.00 1.22 1.17 56 1009.0
20260506050810 1 301 19.3 32.2 0.00 1.22 1.17 55 1008.6
20260506050428 1 301 19.3 32.2 0.00 1.22 1.17 55 1008.6
20260506044429 1 302 17.7 27.4 0.00 1.22 1.17 57 1008.5
20260506043718 1 305 16.1 29.0 0.00 1.22 1.17 56 1008.6
20260506043428 1 305 16.1 29.0 0.00 1.22 1.17 56 1008.6
20260506042428 1 304 20.9 30.6 0.00 1.22 1.17 57 1008.6
20260506041729 1 301 19.3 30.6 0.00 1.22 1.17 56 1008.5
20260506041428 1 301 19.3 30.6 0.00 1.22 1.17 56 1008.5
20260506040428 1 292 24.1 40.2 0.00 1.22 1.17 56 1008.3
20260506035750 1 293 22.5 46.7 0.00 1.22 1.17 56 1008.2
20260506035428 1 293 22.5 46.7 0.00 1.22 1.17 56 1008.2
20260506034741 1 291 25.7 40.2 0.00 1.22 1.17 56 1008.1
20260506034428 1 291 25.7 40.2 0.00 1.22 1.17 56 1008.1
20260506033603 1 297 24.1 33.8 0.00 1.22 1.17 56 1008.0
20260506033428 1 297 24.1 33.8 0.00 1.22 1.17 56 1008.0
20260506032758 1 297 24.1 33.8 0.00 1.22 1.17 56 1007.9
20260506032428 1 297 24.1 33.8 0.00 1.22 1.17 56 1007.9
20260506031428 1 305 24.1 37.0 0.00 1.22 1.17 57 1007.9
20260506030647 1 305 22.5 35.4 0.00 1.22 1.17 58 1007.9
20260506030428 1 305 22.5 35.4 0.00 1.22 1.17 58 1007.9
20260506025428 1 301 22.5 38.6 0.00 1.22 1.17 58 1007.7
20260506024431 1 288 27.4 45.1 0.00 1.22 1.17 58 1007.4
20260506023701 1 287 33.8 53.1 0.00 1.22 1.17 58 1007.2
20260506023428 1 287 33.8 53.1 0.00 1.22 1.17 58 1007.2
20260506021927 2 279 29.0 46.7 0.00 1.22 1.17 59 1007.0
20260506020927 2 282 32.2 45.1 0.00 1.22 1.17 60 1006.9
20260506020141 2 277 30.6 48.3 0.00 1.22 1.17 59 1007.0
20260506015927 2 277 30.6 48.3 0.00 1.22 1.17 59 1007.0
20260506014927 2 275 25.7 45.1 0.00 1.22 1.17 59 1006.9
20260506013927 2 286 20.9 43.5 0.00 1.22 1.17 58 1006.9
20260506013232 2 272 20.9 43.5 0.00 1.22 1.17 59 1006.8
20260506012927 2 272 20.9 43.5 0.00 1.22 1.17 59 1006.8
20260506012232 3 274 24.1 45.1 0.00 1.22 1.17 60 1006.8
20260506011927 3 274 24.1 45.1 0.00 1.22 1.17 60 1006.8
20260506011257 3 262 17.7 40.2 0.00 1.22 1.17 59 1006.8
20260506010927 3 262 17.7 40.2 0.00 1.22 1.17 59 1006.8
20260506010228 3 288 22.5 41.8 0.00 1.22 1.17 59 1006.8
20260506005927 3 288 22.5 41.8 0.00 1.22 1.17 59 1006.8
20260506004927 3 288 17.7 45.1 0.00 1.22 1.17 60 1006.7
20260506003927 3 276 20.9 38.6 0.00 1.22 1.17 62 1006.7
20260506002927 3 264 14.5 41.8 0.00 1.22 1.17 63 1006.7
20260506001927 3 259 27.4 40.2 0.00 1.22 1.17 65 1006.6
20260506000927 3 247 27.4 45.1 0.00 1.22 1.17 65 1006.6
20260505235927 3 246 25.7 45.1 0.00 1.22 1.17 63 1006.5
20260505234928 3 248 32.2 56.3 0.00 1.22 1.17 61 1006.4
20260505233929 3 252 38.6 56.3 0.00 1.22 1.17 59 1006.3
20260505232928 3 246 30.6 48.3 0.00 1.22 1.17 57 1006.4
20260505231927 3 259 40.2 57.9 0.00 1.22 1.17 53 1006.3
20260505230927 3 258 43.5 66.0 0.00 1.22 1.17 47 1006.0
20260505225927 3 253 38.6 64.4 0.00 1.22 1.17 50 1006.1
20260505224930 5 250 40.2 67.6 0.00 1.22 1.17 52 1006.0
20260505223926 4 255 40.2 80.5 0.00 1.22 1.17 53 1006.1
20260505222926 3 258 35.4 62.8 0.00 1.22 1.17 56 1006.2
20260505221926 3 252 33.8 69.2 0.00 1.22 1.17 67 1006.2
20260505220926 2 250 27.4 53.1 0.00 1.22 1.17 76 1006.4
20260505215928 3 258 40.2 62.8 0.00 1.22 1.17 78 1006.4
20260505214927 2 258 32.2 69.2 0.00 1.22 1.17 79 1006.5
20260505213927 2 260 32.2 56.3 0.00 1.22 1.17 79 1006.6
20260505212928 2 257 35.4 62.8 0.00 1.22 1.17 79 1006.6
20260505211927 2 247 33.8 57.9 0.00 1.22 1.17 79 1006.8
20260505210926 2 271 33.8 53.1 0.00 1.22 1.17 79 1006.8
20260505205928 2 256 32.2 49.9 0.00 1.22 1.17 79 1007.0
20260505204927 2 248 33.8 53.1 0.00 1.22 1.17 79 1006.8
20260505203927 2 251 30.6 53.1 0.00 1.22 1.17 79 1007.0
20260505202928 2 256 37.0 59.5 0.00 1.22 1.17 79 1006.9
20260505201926 2 248 38.6 53.1 0.00 1.22 1.17 79 1006.9
20260505200926 2 252 30.6 56.3 0.00 1.22 1.17 79 1007.0
20260505195926 2 258 35.4 54.7 0.00 1.22 1.17 79 1007.0
20260505194926 2 254 37.0 59.5 0.00 1.22 1.17 79 1007.1
20260505193927 2 257 35.4 57.9 0.00 1.22 1.17 79 1007.1
20260505192927 2 249 32.2 57.9 0.00 1.22 1.17 79 1006.9
20260505191927 2 262 37.0 54.7 0.00 1.22 1.17 79 1007.2
20260505190926 2 255 35.4 64.4 0.00 1.22 1.17 79 1007.2
20260505185926 2 251 22.5 62.8 0.00 1.22 1.17 79 1007.3
20260505184926 2 254 32.2 59.5 0.00 1.22 1.17 79 1007.3
20260505183926 2 259 29.0 48.3 0.00 1.22 1.17 79 1007.3
20260505182926 2 261 30.6 51.5 0.00 1.22 1.17 79 1007.3
20260505181927 2 250 30.6 53.1 0.00 1.22 1.17 79 1007.4
20260505180927 2 254 32.2 48.3 0.00 1.22 1.17 79 1007.5
20260505175927 2 251 32.2 48.3 0.00 1.22 1.17 79 1007.4
20260505174926 2 259 29.0 48.3 0.00 1.22 1.17 79 1007.5
20260505173927 2 248 24.1 43.5 0.00 1.22 1.17 79 1007.4
20260505172928 2 260 29.0 43.5 0.00 1.22 1.17 79 1007.6
20260505171929 2 249 25.7 46.7 0.00 1.22 1.17 79 1007.5
20260505170927 2 238 27.4 51.5 0.00 1.22 1.17 79 1007.4
20260505165926 2 255 32.2 56.3 0.00 1.22 1.17 79 1007.5
20260505164926 2 259 19.3 46.7 0.00 1.22 1.17 79 1007.7
20260505163926 2 263 33.8 53.1 0.00 1.22 1.17 79 1007.4
20260505162926 2 251 29.0 48.3 0.00 1.22 1.17 79 1007.3
20260505161926 2 250 32.2 53.1 0.00 1.22 1.17 79 1007.1
20260505160926 2 262 32.2 53.1 0.05 1.22 1.17 79 1007.0
20260505152927 2 249 29.0 46.7 0.48 1.22 1.17 79 1006.9
20260505152256 2 245 35.4 48.3 0.61 1.22 1.17 79 1007.1
20260505151926 2 245 35.4 48.3 0.61 1.22 1.17 79 1007.1